Bookmark and Share
Track history (hours):
 

Taisho Maru

Last reported at 2014-Apr-25 05:32 UTC. Time now 2014-Apr-25 06:07 UTC.
Position N 35°29' E 139°40'.

Length 93 m; draft 4.8 m.

Type: Cargo ship. MMSI: 431300084.

NotesDate/timePositionNaut miles runAvg speedWind from/ knotsBaromVisibWave heightAir tempDewpointWater temp
2014-Apr-25 05:32N 35°29' E 139°40'0 0.0
2014-Apr-25 04:32N 35°29' E 139°40'0 0.0
2014-Apr-25 03:32N 35°29' E 139°40'0 0.0
2014-Apr-25 02:32N 35°29' E 139°40'0 0.0
2014-Apr-25 01:32N 35°29' E 139°40'0 0.0
2014-Apr-25 00:32N 35°29' E 139°40'0 0.0
2014-Apr-24 23:32N 35°29' E 139°40'2 2.2
2014-Apr-24 22:33N 35°27' E 139°41'1 1.0
2014-Apr-24 21:34N 35°26' E 139°42'4 3.7
2014-Apr-24 20:33N 35°22' E 139°43'1111.3
2014-Apr-24 19:33N 35°11' E 139°47'1211.7
2014-Apr-24 18:33N 35°01' E 139°39'384 8.6
2014-Apr-22 22:04N 32°40' E 132°29'  
2014-Apr-18 10:32N 34°36' E 134°54'1212.7
2014-Apr-18 09:33N 34°36' E 135°09'1312.4
2014-Apr-18 08:33N 34°39' E 135°24'3 2.3
2014-Apr-18 07:24N 34°40' E 135°27'0 0.0
2014-Apr-18 06:18N 34°40' E 135°27'0 0.0
2014-Apr-18 05:24N 34°40' E 135°27'0 0.0
2014-Apr-18 04:24N 34°40' E 135°27'0 0.0
2014-Apr-17 22:03N 34°40' E 135°27'1 2.2
2014-Apr-17 21:33N 34°39' E 135°26'6 6.1
2014-Apr-17 20:30N 34°36' E 135°19'0 0.0
2014-Apr-17 19:24N 34°36' E 135°19'0 0.1
2014-Apr-17 18:31N 34°36' E 135°19'4 3.9
2014-Apr-17 17:33N 34°35' E 135°15'1211.9
2014-Apr-17 16:33N 34°37' E 135°00'1512.2
2014-Apr-17 15:22N 34°40' E 134°43'6 0.4
2014-Apr-17 01:15N 34°39' E 134°50'1115.2
2014-Apr-17 00:33N 34°37' E 135°03'1312.7
2014-Apr-16 23:32N 34°24' E 135°02'1414.1
2014-Apr-16 22:33N 34°10' E 134°58'  

Dump ship's entire track history

sailing weather and tide predictions

Taisho Maru — JI3307 — position and weather